酒吧
Baidu.dj全新起航|全新UI设计|响应式布局|同步全球精品DJ舞曲
酒吧
舞曲ID
舞曲名字
人气
舞曲时长
音质
上传时间
MP3文件
下载
- 92387 苏荷酒吧 20181105 BassHouse歌路 19-Jordi Rivera - VIP (Original Mix) 95.01万 04:03 320 2018-11-26 9.3MB
- 92386 苏荷酒吧 20181105 BassHouse歌路 18-7B - 128 - S2 - Shake It (DJ Kane Cut) 70.13万 03:16 320 2018-11-26 7.5MB
- 92385 苏荷酒吧 20181105 BassHouse歌路 17-Mike G. - Get It (Original Mix) 68.66万 03:40 320 2018-11-26 8.4MB
- 92384 苏荷酒吧 20181105 BassHouse歌路 16-DJ Jeff - Pon De Time (Fatman Scoop Edit) 90.20万 02:46 320 2018-11-26 6.4MB
- 92383 苏荷酒吧 20181105 BassHouse歌路 15-Sidney Samson Oliver Heldens - Riverside 102.98万 03:04 320 2018-11-26 7.1MB
- 92382 苏荷酒吧 20181105 BassHouse歌路 14-Frankie Steel - Tommie Sunshine vs. BROHUG - I Got The Power 107.37万 01:39 320 2018-11-26 3.8MB
- 92381 苏荷酒吧 20181105 BassHouse歌路 13-DJ Nelson S - Ronko - Four To The Floor 128 Bpm Clean 76.58万 01:46 320 2018-11-26 4.1MB
- 92380 苏荷酒吧 20181105 BassHouse歌路 12-QuintinoChannii MonroeJoey Dale - Lights Out (Extended Mix) 106.10万 03:37 320 2018-11-26 8.3MB
- 92379 苏荷酒吧 20181105 BassHouse歌路 11-DJ Allan - Travis Scott Sikdope Vs Breathe Carolina 115.09万 02:18 320 2018-11-26 5.3MB
- 92378 苏荷酒吧 20181105 BassHouse歌路 10-7B - 128 - SikdopeZOOTAH - Bubblegumv 148.00万 02:52 320 2018-11-26 6.6MB
- 92377 苏荷酒吧 20181105 BassHouse歌路 09-8A - 126 - Ummet OzcanAmbush - Bombjackv 87.41万 03:49 320 2018-11-26 8.8MB
- 92376 苏荷酒吧 20181105 BassHouse歌路 08-We Are Loud - Tandori Groove (Extended Mix) 75.13万 04:11 320 2018-11-26 9.6MB
- 92375 苏荷酒吧 20181105 BassHouse歌路 07-Bingo PlayersOomloud - Tic Toc (Extended Mix) 228.22万 03:33 320 2018-11-26 8.2MB
- 92374 苏荷酒吧 20181105 BassHouse歌路 06-Jonas Aden - David Goliath (Extended Mix) 58.08万 03:16 320 2018-11-26 7.5MB
- 92373 苏荷酒吧 20181105 BassHouse歌路 05-Starjack - Yello - The Race 2k18 76.06万 03:30 320 2018-11-26 8.0MB
- 92372 苏荷酒吧 20181105 BassHouse歌路 04-Pep RashD-Double - Break Down (Extended Mix) 65.46万 03:02 320 2018-11-26 7.0MB
- 92371 苏荷酒吧 20181105 BassHouse歌路 03-Chocolate PumaKris Kiss - The Max 104.23万 05:34 320 2018-11-26 12.8MB
- 92370 苏荷酒吧 20181105 BassHouse歌路 02-2A-125-Bounce Inc - Dump - Fly.x 128.46万 04:09 320 2018-11-26 9.6MB
- 92369 苏荷酒吧 20181105 BassHouse歌路 01-10A - 126 - Vize - Glad You Came (Original Mix) 91.47万 03:18 320 2018-11-26 7.6MB
- 92344 MUSE酒吧BigRoomMashup电子歌路 14.Fatman Scoop vs Zomboy vs MAKJ - Ladies Make 96.72万 02:24 320 2018-11-26 5.5MB
- 92343 MUSE酒吧BigRoomMashup电子歌路 13. 150 Made In China 137.77万 02:52 320 2018-11-26 6.6MB
- 92342 MUSE酒吧BigRoomMashup电子歌路 12.4A-150-Bomb A Drop (Komb Bootleg) 102.77万 03:15 320 2018-11-26 7.5MB
